CCM006 LFML-LFKJ

Flight info

Callsign CCM006
Flight time 0h 35m
Altitude 23000
Route NASIK P856 EBORA M623 VAREK
Aircraft A320/M-SDE3FGHIRWY/LB1

Departure

Time 2026-05-08 15:44
Airport Marseille Provence Airport (LFML)

Arrival

Time 2026-05-08 16:19
Airport Ajaccio Napoléon Bonaparte airport (LFKJ)
Time Latitude Longitude Altitude Speed Heading
2026-05-08 15:31 43.44178 5.21914 37 ft 0 kts 64°
2026-05-08 15:36 43.44173 5.21900 37 ft 2 kts 76°
2026-05-08 15:37 43.44169 5.21878 37 ft 2 kts 93°
2026-05-08 15:37 43.44173 5.21856 35 ft 2 kts 152°
2026-05-08 15:37 43.44188 5.21853 34 ft 1 kts 210°
2026-05-08 15:37 43.44191 5.21855 34 ft 0 kts 218°
2026-05-08 15:38 43.44191 5.21854 34 ft 0 kts 218°
2026-05-08 15:39 43.44190 5.21853 34 ft 2 kts 218°
2026-05-08 15:39 43.44157 5.21825 35 ft 6 kts 201°
2026-05-08 15:39 43.44115 5.21807 37 ft 7 kts 206°
2026-05-08 15:39 43.44080 5.21766 38 ft 5 kts 223°
2026-05-08 15:40 43.44038 5.21711 38 ft 11 kts 224°
2026-05-08 15:40 43.43967 5.21618 38 ft 17 kts 224°
2026-05-08 15:40 43.43936 5.21468 37 ft 20 kts 305°
2026-05-08 15:40 43.44038 5.21323 35 ft 18 kts 313°
2026-05-08 15:41 43.44139 5.21170 32 ft 25 kts 313°
2026-05-08 15:41 43.44262 5.20987 28 ft 27 kts 310°
2026-05-08 15:41 43.44369 5.20785 25 ft 26 kts 313°
2026-05-08 15:41 43.44491 5.20606 23 ft 22 kts 314°
2026-05-08 15:42 43.44613 5.20433 20 ft 29 kts 313°
2026-05-08 15:42 43.44759 5.20221 16 ft 29 kts 314°
2026-05-08 15:42 43.44879 5.20050 13 ft 28 kts 314°
2026-05-08 15:42 43.44977 5.19878 10 ft 22 kts 280°
2026-05-08 15:43 43.44906 5.19784 13 ft 16 kts 184°
2026-05-08 15:43 43.44854 5.19821 11 ft 1 kts 137°
2026-05-08 15:43 43.44784 5.19918 11 ft 51 kts 135°
2026-05-08 15:43 43.44305 5.20600 28 ft 143 kts 134°
2026-05-08 15:44 43.43553 5.21749 678 ft 164 kts 135°
2026-05-08 15:44 43.42840 5.23007 1743 ft 172 kts 123°
2026-05-08 15:44 43.42328 5.24611 2581 ft 197 kts 107°
2026-05-08 15:44 43.42149 5.26593 3267 ft 220 kts 91°
2026-05-08 15:45 43.42379 5.28784 3840 ft 240 kts 82°
2026-05-08 15:45 43.42691 5.31119 4595 ft 257 kts 82°
2026-05-08 15:45 43.43018 5.33578 5540 ft 265 kts 82°
2026-05-08 15:45 43.43143 5.36125 6516 ft 268 kts 95°
2026-05-08 15:46 43.43031 5.38677 7443 ft 272 kts 95°
2026-05-08 15:46 43.42901 5.41299 8397 ft 277 kts 96°
2026-05-08 15:46 43.42764 5.43966 9339 ft 283 kts 97°
2026-05-08 15:46 43.42627 5.46689 10229 ft 289 kts 96°
2026-05-08 15:47 43.42483 5.49566 10629 ft 313 kts 96°
2026-05-08 15:47 43.42379 5.51614 10851 ft 329 kts 96°
2026-05-08 15:47 43.42214 5.54867 11167 ft 351 kts 95°
2026-05-08 15:47 43.42046 5.58226 11800 ft 360 kts 95°
2026-05-08 15:48 43.41701 5.65189 13328 ft 371 kts 96°
2026-05-08 15:48 43.41522 5.68758 14069 ft 376 kts 95°
2026-05-08 15:48 43.41345 5.72364 14730 ft 381 kts 94°
2026-05-08 15:49 43.41406 5.76041 15387 ft 387 kts 88°
2026-05-08 15:49 43.41543 5.79758 16064 ft 391 kts 88°
2026-05-08 15:49 43.41677 5.83518 16726 ft 396 kts 88°
2026-05-08 15:49 43.41809 5.87299 17389 ft 400 kts 88°
2026-05-08 15:50 43.41939 5.91142 18057 ft 405 kts 88°
2026-05-08 15:50 43.42070 5.95038 18666 ft 409 kts 88°
2026-05-08 15:50 43.42202 5.98965 19230 ft 414 kts 88°
2026-05-08 15:50 43.42332 6.02949 19799 ft 419 kts 88°
2026-05-08 15:51 43.42460 6.06975 20334 ft 423 kts 88°
2026-05-08 15:51 43.42589 6.11043 20838 ft 429 kts 88°
2026-05-08 15:51 43.42718 6.15171 21320 ft 434 kts 88°
2026-05-08 15:51 43.42848 6.19348 21816 ft 439 kts 88°
2026-05-08 15:52 43.42981 6.23561 22304 ft 443 kts 88°
2026-05-08 15:52 43.42975 6.27823 22779 ft 448 kts 95°
2026-05-08 15:52 43.42627 6.32091 22993 ft 450 kts 98°
2026-05-08 15:52 43.42238 6.36425 23034 ft 463 kts 98°
2026-05-08 15:53 43.41831 6.40860 23030 ft 472 kts 98°
2026-05-08 15:53 43.41416 6.45357 23030 ft 474 kts 98°
2026-05-08 15:53 43.41004 6.49861 23030 ft 476 kts 98°
2026-05-08 15:53 43.40597 6.54330 23029 ft 477 kts 98°
2026-05-08 15:54 43.40179 6.58918 23031 ft 477 kts 98°
2026-05-08 15:54 43.39770 6.63379 23029 ft 478 kts 98°
2026-05-08 15:54 43.39349 6.67918 23030 ft 478 kts 98°
2026-05-08 15:54 43.38925 6.72446 23031 ft 478 kts 98°
2026-05-08 15:55 43.38499 6.76976 23027 ft 478 kts 98°
2026-05-08 15:55 43.37644 6.86025 23027 ft 478 kts 98°
2026-05-08 15:55 43.37215 6.90549 23023 ft 478 kts 98°
2026-05-08 15:56 43.36787 6.95078 23020 ft 478 kts 98°
2026-05-08 15:56 43.36353 6.99608 23019 ft 478 kts 98°
2026-05-08 15:56 43.35915 7.04129 23018 ft 478 kts 98°
2026-05-08 15:56 43.35475 7.08656 23019 ft 478 kts 98°
2026-05-08 15:57 43.35031 7.13184 23019 ft 478 kts 98°
2026-05-08 15:57 43.34587 7.17713 23019 ft 478 kts 98°
2026-05-08 15:57 43.34143 7.22241 23019 ft 478 kts 98°
2026-05-08 15:57 43.33653 7.26762 23017 ft 478 kts 102°
2026-05-08 15:58 43.32727 7.31132 23015 ft 476 kts 112°
2026-05-08 15:58 43.31286 7.35207 23015 ft 474 kts 123°
2026-05-08 15:58 43.29376 7.38881 23016 ft 471 kts 133°
2026-05-08 15:58 43.27076 7.42049 23015 ft 468 kts 142°
2026-05-08 15:59 43.24502 7.44765 23017 ft 466 kts 146°
2026-05-08 15:59 43.21905 7.47426 23016 ft 466 kts 146°
2026-05-08 15:59 43.19306 7.50086 23016 ft 466 kts 146°
2026-05-08 15:59 43.16706 7.52741 23007 ft 466 kts 146°
2026-05-08 16:00 43.14108 7.55393 23017 ft 466 kts 146°
2026-05-08 16:00 43.11469 7.57960 23020 ft 464 kts 151°
2026-05-08 16:00 43.08627 7.59996 23017 ft 459 kts 160°
2026-05-08 16:00 43.05644 7.61527 23018 ft 458 kts 164°
2026-05-08 16:01 43.02650 7.63008 23019 ft 458 kts 163°
2026-05-08 16:01 42.99654 7.64495 23018 ft 458 kts 163°
2026-05-08 16:01 42.96656 7.65986 23008 ft 458 kts 163°
2026-05-08 16:01 42.93657 7.67479 23014 ft 458 kts 163°
2026-05-08 16:02 42.90660 7.68967 23019 ft 458 kts 163°
2026-05-08 16:02 42.87701 7.70432 23021 ft 458 kts 163°
2026-05-08 16:02 42.84713 7.71902 23026 ft 458 kts 163°
2026-05-08 16:02 42.81717 7.73373 23024 ft 458 kts 163°
2026-05-08 16:03 42.78740 7.74839 23028 ft 458 kts 163°
2026-05-08 16:03 42.75743 7.76319 23023 ft 458 kts 163°
2026-05-08 16:03 42.72750 7.77796 23023 ft 457 kts 163°
2026-05-08 16:03 42.69758 7.79270 23027 ft 457 kts 163°
2026-05-08 16:04 42.66797 7.80730 22461 ft 449 kts 163°
2026-05-08 16:04 42.63850 7.82179 21256 ft 452 kts 163°
2026-05-08 16:04 42.60905 7.83621 20450 ft 447 kts 162°
2026-05-08 16:04 42.58001 7.85043 19682 ft 441 kts 162°
2026-05-08 16:05 42.55130 7.86449 18927 ft 436 kts 162°
2026-05-08 16:05 42.52285 7.87842 18177 ft 432 kts 162°
2026-05-08 16:05 42.49474 7.89213 17456 ft 426 kts 162°
2026-05-08 16:05 42.46714 7.90558 16802 ft 419 kts 161°
2026-05-08 16:06 42.43992 7.91885 16172 ft 413 kts 161°
2026-05-08 16:06 42.41306 7.93191 15572 ft 407 kts 161°
2026-05-08 16:06 42.38655 7.94478 14971 ft 403 kts 161°
2026-05-08 16:06 42.36033 7.95754 14377 ft 398 kts 161°
2026-05-08 16:07 42.33470 7.97122 13748 ft 395 kts 155°
2026-05-08 16:07 42.31133 7.99047 13081 ft 392 kts 143°
2026-05-08 16:07 42.29123 8.01513 12387 ft 388 kts 133°
2026-05-08 16:07 42.27384 8.04278 11687 ft 385 kts 130°
2026-05-08 16:08 42.25666 8.07025 11082 ft 379 kts 130°
2026-05-08 16:08 42.24008 8.09666 10938 ft 359 kts 130°
2026-05-08 16:08 42.22428 8.12173 10821 ft 342 kts 130°
2026-05-08 16:08 42.20922 8.14553 10698 ft 326 kts 130°
2026-05-08 16:09 42.19481 8.16829 10577 ft 312 kts 130°
2026-05-08 16:09 42.18124 8.18972 10457 ft 299 kts 130°
2026-05-08 16:09 42.16788 8.21079 10204 ft 293 kts 130°
2026-05-08 16:09 42.15476 8.23145 9970 ft 287 kts 130°
2026-05-08 16:10 42.14184 8.25181 9840 ft 286 kts 129°
2026-05-08 16:10 42.12892 8.27214 9707 ft 285 kts 130°
2026-05-08 16:10 42.11602 8.29244 9512 ft 285 kts 130°
2026-05-08 16:10 42.10315 8.31272 9146 ft 283 kts 130°
2026-05-08 16:11 42.09038 8.33281 8762 ft 282 kts 130°
2026-05-08 16:11 42.07767 8.35279 8360 ft 281 kts 130°
2026-05-08 16:11 42.06497 8.37275 7971 ft 280 kts 130°
2026-05-08 16:11 42.05232 8.39260 7582 ft 279 kts 131°
2026-05-08 16:12 42.03968 8.41237 7196 ft 278 kts 131°
2026-05-08 16:12 42.02713 8.43204 6812 ft 277 kts 130°
2026-05-08 16:12 42.01462 8.45167 6419 ft 275 kts 130°
2026-05-08 16:12 42.00219 8.47115 6020 ft 274 kts 130°
2026-05-08 16:13 41.99101 8.49171 5635 ft 272 kts 117°
2026-05-08 16:13 41.98496 8.51557 5259 ft 270 kts 99°
2026-05-08 16:13 41.98470 8.54062 4879 ft 268 kts 82°
2026-05-08 16:13 41.98917 8.56491 4495 ft 267 kts 75°
2026-05-08 16:14 41.99410 8.58876 4124 ft 263 kts 75°
2026-05-08 16:14 41.99893 8.61224 3750 ft 259 kts 75°
2026-05-08 16:14 42.00366 8.63538 3386 ft 255 kts 75°
2026-05-08 16:14 42.00722 8.65847 3047 ft 250 kts 87°
2026-05-08 16:15 42.00574 8.68088 3012 ft 233 kts 101°
2026-05-08 16:15 42.00298 8.70151 3005 ft 213 kts 101°
2026-05-08 16:15 42.00059 8.71986 3023 ft 185 kts 100°
2026-05-08 16:15 41.99857 8.73558 2999 ft 157 kts 101°
2026-05-08 16:16 41.99674 8.74973 2704 ft 150 kts 100°
2026-05-08 16:16 41.99499 8.76316 2452 ft 143 kts 101°
2026-05-08 16:16 41.99329 8.77614 2219 ft 141 kts 102°
2026-05-08 16:16 41.99160 8.78905 1989 ft 140 kts 102°
2026-05-08 16:17 41.98996 8.80171 1774 ft 138 kts 103°
2026-05-08 16:17 41.98838 8.81011 1611 ft 136 kts 116°
2026-05-08 16:17 41.98071 8.82268 1329 ft 131 kts 149°
2026-05-08 16:17 41.97231 8.82715 1125 ft 131 kts 172°
2026-05-08 16:18 41.96329 8.82657 916 ft 130 kts 196°
2026-05-08 16:18 41.95494 8.82177 721 ft 131 kts 206°
2026-05-08 16:18 41.94670 8.81662 514 ft 130 kts 205°
2026-05-08 16:18 41.93851 8.81152 320 ft 129 kts 205°
2026-05-08 16:19 41.93058 8.80659 104 ft 121 kts 205°
2026-05-08 16:19 41.92338 8.80213 24 ft 103 kts 204°
2026-05-08 16:19 41.91777 8.79867 23 ft 76 kts 205°
2026-05-08 16:19 41.91404 8.79634 20 ft 36 kts 205°
2026-05-08 16:20 41.91249 8.79505 23 ft 23 kts 253°
2026-05-08 16:20 41.91349 8.79361 26 ft 22 kts 335°
2026-05-08 16:20 41.91498 8.79358 26 ft 16 kts 22°
2026-05-08 16:20 41.91598 8.79417 26 ft 15 kts 24°
2026-05-08 16:21 41.91688 8.79472 26 ft 9 kts 25°
2026-05-08 16:21 41.91737 8.79454 26 ft 7 kts 343°
2026-05-08 16:21 41.91747 8.79450 26 ft 0 kts 343°
2026-05-08 16:21 41.91748 8.79450 26 ft 0 kts 343°